Location: Unspecified
(0.0000°N, 0.0000°E)
Time: 02:27:17
(UTC+00:00)

Vanguard 1 - Pass Details

Date: 16 December 2023
Orbit: 653 x 3826 km, 34.3° (Epoch: 22 February)

Event Time Altitude Azimuth Distance (km) Brightness Sun altitude
Rises 13:31:04 0° 282° (WNW) 3,270 13.0 57.1°
Reaches altitude 10° 13:34:21 10° 307° (NW) 2,630 12.5 56.5°
Maximum altitude 13:37:52 15° 342° (NNW) 2,629 12.3 55.9°
Drops below altitude 10° 13:42:23 10° 14° (NNE) 3,530 12.7 55.1°
Sets 13:48:12 0° 35° (NE) 5,224 13.4 54.1°
